This is the latest recevied weather packets stored in our database for station/object IU2GZQ-13. If no packets are shown the sender has not sent any weather packets the latest 10 day(s).
| Time | Temp. | Humidity | Pressure | Rain* | Wind** | Luminosity | Snow |
|---|---|---|---|---|---|---|---|
| 1778233248 | 19.44° C | 68% | 1017.6 hPa | 0 mm | - | - | - |
| 1778232625 | 19.44° C | 68% | 1017.5 hPa | 0 mm | - | - | - |
| 1778232043 | 19.44° C | 68% | 1017.6 hPa | 0 mm | - | - | - |
| 1778231480 | 18.89° C | 68% | 1017.6 hPa | 0 mm | - | - | - |
| 1778230898 | 18.33° C | 71% | 1017.6 hPa | 0 mm | - | - | - |
| 1778230235 | 17.78° C | 72% | 1017.5 hPa | 0 mm | - | - | - |
| 1778229672 | 17.78° C | 72% | 1017.4 hPa | 0 mm | - | - | - |
| 1778229029 | 17.78° C | 75% | 1017.4 hPa | 0 mm | - | - | - |
| 1778228427 | 17.78° C | 74% | 1017.4 hPa | 0 mm | - | - | - |
| 1778227824 | 17.22° C | 75% | 1017.4 hPa | 0 mm | - | - | - |
| 1778227220 | 17.22° C | 77% | 1017.4 hPa | 0 mm | - | - | - |
| 1778226698 | 16.67° C | 80% | 1017.5 hPa | 0 mm | - | - | - |
| 1778226076 | 16.11° C | 83% | 1017.5 hPa | 0 mm | - | - | - |
| 1778225454 | 16.11° C | 83% | 1017.5 hPa | 0 mm | - | - | - |
| 1778224871 | 15.56° C | 82% | 1017.5 hPa | 0 mm | - | - | - |
| 1778224229 | 15.56° C | 85% | 1017.4 hPa | 0 mm | - | - | - |
| 1778223625 | 15° C | 85% | 1017.3 hPa | 0 mm | - | - | - |
| 1778223024 | 15° C | 85% | 1017.4 hPa | 0 mm | - | - | - |
| 1778222439 | 15° C | 86% | 1017.3 hPa | 0 mm | - | - | - |
| 1778221897 | 15° C | 87% | 1017.1 hPa | 0 mm | - | - | - |
| 1778221234 | 14.44° C | 87% | 1016.9 hPa | 0 mm | - | - | - |
| 1778220630 | 14.44° C | 87% | 1016.6 hPa | 0 mm | - | - | - |
| 1778220048 | 14.44° C | 87% | 1016.6 hPa | 0 mm | - | - | - |
| 1778219486 | 14.44° C | 87% | 1016.5 hPa | 0 mm | - | - | - |
| 1778218823 | 14.44° C | 89% | 1016.3 hPa | 0 mm | - | - | - |
* Rain latest hour (hover to see other rain measurements)
** Current wind speed in m/s (hover to see current wind gust speed)